1381968028060,0.968468
1381968088060,0.963290
1381968148060,0.960530
1381968208060,0.964306
1381968268060,0.972871
1381968328060,0.967201
1381968388060,0.964809
1381968448060,0.973584
1381968508060,0.960212
1381968568060,0.963006
1381968628060,0.963480
1381968688060,0.965957
1381968748060,0.965245
1381968808060,0.960656
1381968868060,0.951832
1381968928060,0.956099
1381968988060,0.949914
1381969048060,0.952127
1381969108060,0.956516
1381969168060,0.950684
1381969228060,0.953671
1381969288060,0.946072
1381969348060,0.955971
1381969408060,0.950454
1381969468060,0.945529
1381969528060,0.950137
1381969588060,0.947345
1381969648060,0.945776
1381969708060,0.949087
1381969768060,0.951942
1381969828060,0.948169
1381969888060,0.946793
1381969948060,0.943536
1381970008060,0.952156
1381970068060,0.944952
1381970128060,0.939267
1381970188060,0.950154
1381970248060,0.941536
1381970308060,0.948973
1381970368060,0.941096
1381970428060,0.940824
1381970488060,0.951527
1381970548060,0.950664
1381970608060,0.933769
1381970668060,0.941076
1381970728060,0.941599
1381970788060,0.938858
1381970848060,0.941426
1381970908060,0.940238
1381970968060,0.941904
1381971028060,0.942784
1381971088060,0.956634
1381971148060,0.949316
1381971208060,0.948128
1381971268060,0.948722
1381971328060,0.946166
1381971388060,0.936214
1381971448060,0.945511
1381971508060,0.947037
1381971568060,0.949810
1381971628070,0.945553
1381971688070,0.953839
1381971748070,0.946226
1381971808070,0.948030
1381971868070,0.955595
1381971928070,0.948405
1381971988070,0.956929
1381972048070,0.958734
1381972108070,0.960280
1381972168070,0.966055
1381972228070,0.964764
1381972288070,0.972976
1381972348070,0.980931
1381972408070,0.973410
1381972468070,0.975897
1381972528070,0.974607
1381972588070,0.977700
1381972648070,0.972989
1381972708070,0.978867
1381972768070,0.969985
1381972828070,0.967810
1381972888070,0.961196
1381972948070,0.961203
1381973008070,0.973418
1381973068070,0.969134
1381973128070,0.975231
1381973188070,0.973340
1381973248070,0.972575
1381973308070,0.966289
1381973368070,0.971818
1381973428070,0.975206
1381973488070,0.980303
1381973548070,0.975054
1381973608070,0.962258
1381973668070,0.971149
1381973728070,0.964225
1381973788070,0.960674
1381973848070,0.958116
1381973908070,0.959859
1381973968070,0.950609
1381974028070,0.960880
1381974088070,0.956664
1381974148070,0.956504
1381974208070,0.959012
1381974268070,0.954058
1381974328070,0.959658
1381974388070,0.955677
1381974448070,0.960265
1381974508070,0.960034
1381974568070,0.960020
1381974628070,0.958987
1381974688070,0.962852
1381974748070,0.965320
1381974808070,0.970760
1381974868070,0.976259
1381974928070,0.973816
1381974988070,0.970468
1381975048070,0.979129
1381975108070,0.973891
1381975168070,0.976179
1381975228080,0.975414
1381975288080,0.966901
1381975348080,0.966848
1381975408080,0.965590
1381975468080,0.964390
1381975528080,0.967897
1381975588080,0.968774
1381975648080,0.957794
1381975708080,0.962533
1381975768080,0.958336
1381975828080,0.962114
1381975888080,0.956360
1381975948080,0.955663
1381976008080,0.950768
1381976068080,0.955665
1381976128080,0.959655
1381976188080,0.955418
1381976248080,0.957636
1381976308080,0.968129
1381976368080,0.963262
1381976428080,0.957869
1381976488080,0.956297
1381976548080,0.964180
1381976608080,0.968213
1381976668080,0.956906
1381976728080,0.965563
1381976788080,0.964156
1381976848080,0.963098
1381976908080,0.968975
1381976968080,0.966226
1381977028080,0.965765
1381977088080,0.968057
1381977148080,0.972590
1381977208080,0.966853
1381977268080,0.972477
1381977328080,0.983629
1381977388080,0.982113
1381977448080,0.982591
1381977508080,0.978139
1381977568080,0.995560
1381977628080,0.993352
1381977688080,0.995975
1381977748080,1.00474
1381977808080,1.00652
1381977868080,1.00389
1381977928080,1.01705
1381977988080,1.01238
1381978048080,1.02223
1381978108080,1.02215
1381978168080,1.02020
1381978228080,1.01862
1381978288080,1.02366
1381978348080,1.02684
1381978408080,1.02899
1381978468080,1.02639
1381978528080,1.03741
1381978588080,1.02706
1381978648080,1.04072
1381978708080,1.03632
1381978768080,1.03163
1381978828090,1.03755
1381978888090,1.04488
1381978948090,1.05017
1381979008090,1.05413
1381979068090,1.05620
1381979128090,1.05689
1381979188090,1.05813
1381979248090,1.05380
1381979308090,1.07173
1381979368090,1.07095
1381979428090,1.07157
1381979488090,1.06653
1381979548090,1.06458
1381979608090,1.06959
1381979668090,1.08268
1381979728090,1.07217
1381979788090,1.07314
1381979848090,1.07712
1381979908090,1.07185
1381979968090,1.07665
1381980028090,1.07354
1381980088090,1.08169
1381980148090,1.08634
1381980208090,1.07999
1381980268090,1.07717
1381980328090,1.09505
1381980388090,1.09487
1381980448090,1.10390
1381980508090,1.11191
1381980568090,1.12242
1381980628090,1.13138
1381980688090,1.14359
1381980748090,1.15502
1381980808090,1.14296
1381980868090,1.14065
1381980928090,1.14184
1381980988090,1.13959
1381981048090,1.13175
1381981108090,1.11581
1381981168090,1.11183
1381981228090,1.11010
1381981288090,1.09924
1381981348090,1.09727
1381981408090,1.09098
1381981468090,1.08655
1381981528090,1.07371
1381981588090,1.07067
1381981648090,1.07271
1381981708090,1.07345
1381981768090,1.07794
1381981828090,1.06330
1381981888090,1.07007
1381981948090,1.06887
1381982008090,1.06018
1381982068090,1.04744
1381982128090,1.03570
1381982188090,1.03635
1381982248090,1.03360
1381982308090,1.03384
1381982368090,1.02644
1381982428099,1.01957
1381982488099,1.01801
1381982548099,1.00569
1381982608099,1.01308
1381982668099,1.00558
1381982728099,1.00554
1381982788099,1.00083
1381982848099,1.00058
1381982908099,0.990309
1381982968099,0.999777
1381983028099,0.992051
1381983088099,0.989490
1381983148099,0.985346
1381983208099,0.982769
1381983268099,0.986186
1381983328099,0.984722
1381983388099,0.980056
1381983448099,0.977109
1381983508099,0.977275
1381983568099,0.978084
1381983628099,0.977786
1381983688099,0.980146
1381983748099,0.971254
1381983808099,0.971049
1381983868099,0.976790
1381983928099,0.960759
1381983988099,0.962837
1381984048099,0.967872
1381984108099,0.969362
1381984168099,0.975449
1381984228099,0.977597
1381984288099,0.969362
1381984348099,0.970149
1381984408099,0.974351
1381984468099,0.965630
1381984528099,0.969387
1381984588099,0.963626
1381984648099,0.973772
1381984708099,0.964235
1381984768099,0.971673
1381984828099,0.973729
1381984888099,0.972219
1381984948099,0.968812
1381985008099,0.973270
1381985068099,0.970872
1381985128099,0.976305
1381985188099,0.970271
1381985248099,0.972996
1381985308099,0.982196
1381985368099,0.971318
1381985428099,0.967769
1381985488099,0.972605
1381985548099,0.965959
1381985608099,0.979581
1381985668099,0.983987
1381985728099,0.974364
1381985788099,0.980974
1381985848099,0.974454
1381985908099,0.975093
1381985968099,0.972958
1381986028109,0.977237
1381986088109,0.968333
1381986148109,0.973463
1381986208109,0.980066
1381986268109,0.977793
1381986328109,0.971628
1381986388109,0.976665
1381986448109,0.980472
1381986508109,0.967271
1381986568109,0.978255
1381986628109,0.978607
1381986688109,0.974249
1381986748109,0.982834
1381986808109,0.971572
1381986868109,0.962504
1381986928109,0.966188
1381986988109,0.964876
1381987048109,0.960940
1381987108109,0.974907
1381987168109,0.975347
1381987228109,0.967200
1381987288109,0.971140
1381987348109,0.979904
1381987408109,0.967225
1381987468109,0.976880
1381987528109,0.983240
1381987588109,0.970352
1381987648109,0.974960
1381987708109,0.976570
1381987768109,0.963992
1381987828109,0.977001
1381987888109,0.970278
1381987948109,0.974919
1381988008109,0.970804
1381988068109,0.975932
1381988128109,0.974284
1381988188109,0.968640
1381988248109,0.973430
1381988308109,0.975200
1381988368109,0.974145
1381988428109,0.977144
1381988488109,0.972142
1381988548109,0.977550
1381988608109,0.975004
1381988668109,0.981798
1381988728109,0.968273
1381988788109,0.969592
1381988848109,0.973540
1381988908109,0.973977
1381988968109,0.978616
1381989028109,0.973206
1381989088109,0.968840
1381989148109,0.973036
1381989208109,0.978655
1381989268109,0.971912
1381989328109,0.973456
1381989388109,0.970433
1381989448109,0.971171
1381989508109,0.971078
1381989568109,0.971807
1381989628119,0.982762
1381989688119,0.974393
1381989748119,0.972061
1381989808119,0.988790
1381989868119,0.982078
1381989928119,0.975607
1381989988119,0.978307
1381990048119,0.975495
1381990108119,0.971447
1381990168119,0.973275
1381990228119,0.979521
1381990288119,0.984198
1381990348119,0.984869
1381990408119,0.986127
1381990468119,0.992305
1381990528119,0.997757
1381990588119,0.983354
1381990648119,0.987624
1381990708119,0.983895
1381990768119,0.993857
1381990828119,0.986486
1381990888119,0.984410
1381990948119,0.978780
1381991008119,0.979010
1381991068119,0.980478
1381991128119,0.978962
1381991188119,0.975437
1381991248119,0.977273
1381991308119,0.983248
1381991368119,0.983636
1381991428119,0.982264
1381991488119,0.967556
1381991548119,0.976626
1381991608119,0.978714
1381991668119,0.976929
1381991728119,0.972281
1381991788119,0.971434
1381991848119,0.969717
1381991908119,0.970659
1381991968119,0.968477
1381992028119,0.967796
1381992088119,0.962074
1381992148119,0.970820
1381992208119,0.974760
1381992268119,0.961520
1381992328119,0.964931
1381992388119,0.974439
1381992448119,0.962580
1381992508119,0.954894
1381992568119,0.963318
1381992628119,0.970260
1381992688119,0.966603
1381992748119,0.971084
1381992808119,0.960140
1381992868119,0.963707
1381992928119,0.964086
1381992988119,0.966264
1381993048119,0.967049
1381993108119,0.966624
1381993168119,0.962219
1381993228129,0.970039
1381993288129,0.970781
1381993348129,0.962572
1381993408129,0.973406
1381993468129,0.965528
1381993528129,0.966198
1381993588129,0.970904
1381993648129,0.965504
1381993708129,0.962864
1381993768129,0.969700
1381993828129,0.967949
1381993888129,0.971414
1381993948129,0.967921
1381994008129,0.962332
1381994068129,0.968614
1381994128129,0.971179
1381994188129,0.964932
1381994248129,0.976924
1381994308129,0.969642
1381994368129,0.960883
1381994428129,0.968997
1381994488129,0.963462
1381994548129,0.967565
1381994608129,0.971014
1381994668129,0.963942
1381994728129,0.968394
1381994788129,0.975191
1381994848129,0.970217
1381994908129,0.976867
1381994968129,0.979003
1381995028129,0.976156
1381995088129,0.967556
1381995148129,0.976764
1381995208129,0.962268
1381995268129,0.973102
1381995328129,0.965639
1381995388129,0.971368
1381995448129,0.971389
1381995508129,0.977495
1381995568129,0.967850
1381995628129,0.977571
1381995688129,0.960001
1381995748129,0.972355
1381995808129,0.983046
1381995868129,0.974143
1381995928129,0.973271
1381995988129,0.978243
1381996048129,0.974715
1381996108129,0.964535
1381996168129,0.974900
1381996228129,0.970186
1381996288129,0.973750
1381996348129,0.976509
1381996408129,0.981567
1381996468129,0.977945
1381996528129,0.969337
1381996588129,0.977996
1381996648129,0.972902
1381996708129,0.972335
1381996768129,0.976632
1381996828140,0.972593
1381996888140,0.967441
1381996948140,0.969133
1381997008140,0.974314
1381997068140,0.964381
1381997128140,0.978727
1381997188140,0.973016
1381997248140,0.971239
1381997308140,0.978883
1381997368140,0.975769
1381997428140,0.979471
1381997488140,0.970574
1381997548140,0.971296
1381997608140,0.980920
1381997668140,0.975174
1381997728140,0.980390
1381997788140,0.990586
1381997848140,0.985000
1381997908140,0.981057
1381997968140,0.988012
1381998028140,0.985854
1381998088140,0.982980
1381998148140,0.989691
1381998208140,0.990712
1381998268140,0.990376
1381998328140,0.996974
1381998388140,0.992204
1381998448140,0.993343
1381998508140,1.00670
1381998568140,1.00474
1381998628140,1.00449
1381998688140,1.00609
1381998748140,1.00555
1381998808140,1.00404
1381998868140,1.00351
1381998928140,1.00432
1381998988140,1.00711
1381999048140,1.00343
1381999108140,1.00479
1381999168140,1.00994
1381999228140,1.00279
1381999288140,1.00427
1381999348140,1.00344
1381999408140,1.00411
1381999468140,0.993759
1381999528140,1.00403
1381999588140,1.00621
1381999648140,0.998706
1381999708140,1.00450
1381999768140,0.996729
1381999828140,1.00676
1381999888140,1.00226
1381999948140,1.00778
1382000008140,1.01319
1382000068140,1.01458
1382000128140,1.01881
1382000188140,1.01329
1382000248140,1.01439
1382000308140,1.01822
1382000368140,1.02020
1382000428150,1.01751
1382000488150,1.01471
1382000548150,1.01170
1382000608150,1.02156
1382000668150,1.01982
1382000728150,1.01584
1382000788150,1.01475
1382000848150,1.01627
1382000908150,1.01728
1382000968150,1.01665
1382001028150,1.01513
1382001088150,1.02289
1382001628150,1.01930
1382001688150,1.01523
1382001748150,1.02119
1382001808150,1.02012
1382001868150,1.02228
1382001928150,1.02344
1382001988150,1.01707
1382002048150,1.02478
1382002108150,1.01222
1382002168150,1.02340
1382002228150,1.00841
1382002288150,1.02018
1382002348150,1.02342
1382002408150,1.02907
1382002468150,1.01767
1382002528150,1.03380
1382002588150,1.01893
1382002648150,1.02943
1382002708150,1.02133
1382002768150,1.03395
1382002828150,1.02976
1382002888150,1.03034
1382002948150,1.03706
1382003008150,1.03879
1382003068150,1.03314
1382003128150,1.03551
1382003188150,1.03449
1382003248150,1.03876
1382003308150,1.04129
1382003368150,1.04520
1382003428150,1.04459
1382003488150,1.04313
1382003548150,1.06087
1382003608150,1.04135
1382003668150,1.05675
1382003728150,1.05586
1382003788150,1.05751
1382003848150,1.05655
1382003908150,1.05818
1382003968150,1.05148
1382004028161,1.05787
1382004088161,1.05645
1382004148161,1.05361
1382004208161,1.05835
1382004268161,1.06403
1382004328161,1.05811
1382004388161,1.05653
1382004448161,1.06245
1382004508161,1.05206
1382004568161,1.06167
1382004628161,1.05676
1382004688161,1.04834
1382004748161,1.05318
1382004808161,1.04876
1382004868161,1.05529
1382004928161,1.05270
1382004988161,1.05031
1382005048161,1.04464
1382005108161,1.04312
1382005168161,1.04075
1382005228161,1.03427
1382005288161,1.02873
1382005348161,1.03068
1382005408161,1.02637
1382005468161,1.02846
1382005528161,1.03399
1382005588161,1.02472
1382005648161,1.02778
1382005708161,1.04060
1382005768161,1.05236
1382005828161,1.07373
1382005888161,1.08191
1382005948161,1.10263
1382006008161,1.11163
1382006068161,1.11252
1382006128161,1.11624
1382006188161,1.10741
1382006248161,1.10654
1382006308161,1.10581
1382006368161,1.10742
1382006428161,1.09232
1382006488161,1.08005
1382006548161,1.07934
1382006608161,1.08287
1382006668161,1.06929
1382006728161,1.07691
1382006788161,1.07225
1382006848161,1.06512
1382006908161,1.06836
1382006968161,1.06819
1382007028161,1.07314
1382007088161,1.07313
1382007148161,1.06288
1382007208161,1.06669
1382007268161,1.06853
1382007328161,1.06266
1382007388161,1.06611
1382007448161,1.06555
1382007508161,1.06406
1382007568161,1.06303
1382007628172,1.06335
1382007688172,1.06089
1382007748172,1.05738
1382007808172,1.05737
1382007868172,1.05870
1382007928172,1.05231
1382007988172,1.05415
1382008048172,1.04800
1382008108172,1.05725
1382008168172,1.05244
1382008228172,1.05428
1382008288172,1.04221
1382008348172,1.04717
1382008408172,1.04276
1382008468172,1.04299
1382008528172,1.05041
1382008588172,1.05009
1382008648172,1.04432
1382008708172,1.04302
1382008768172,1.03698
1382008828172,1.04632
1382008888172,1.03933
1382008948172,1.03533
1382009008172,1.02616
1382009068172,1.04035
1382009128172,1.02428
1382009188172,1.03546
1382009248172,1.01907
1382009308172,1.02586
1382009368172,1.02357
1382009428172,1.02923
1382009488172,1.02654
1382009548172,1.01670
1382009608172,1.02597
1382009668172,1.02419
1382009728172,1.02761
1382009788172,1.02260
1382009848172,1.03448
1382009908172,1.02306
1382009968172,1.02894
1382010028172,1.02077
1382010088172,1.01604
1382010148172,1.02156
1382010208172,1.01470
1382010268172,1.02465
1382010328172,1.02449
1382010388172,1.01936
1382010448172,1.02183
1382010508172,1.01778
1382010568172,1.03700
1382010628172,1.03684
1382010688172,1.04111
1382010748172,1.04737
1382010808172,1.05034
1382010868172,1.05586
1382010928172,1.07074
1382010988172,1.06802
1382011048172,1.08629
1382011108172,1.08303
1382011168172,1.09272
1382011228183,1.10843
1382011288183,1.10834
1382011348183,1.12607
1382011408183,1.12576
1382011468183,1.13765
1382011528183,1.14576
1382011588183,1.13673
1382011648183,1.13063
1382011708183,1.13663
1382011768183,1.13415
1382011828183,1.13511
1382011888183,1.12929
1382011948183,1.13890
1382012008183,1.13555
1382012068183,1.12316
1382012128183,1.12763
1382012188183,1.12575
1382012248183,1.12681
1382012308183,1.11684
1382012368183,1.11142
1382012428183,1.11831
1382012488183,1.10677
1382012548183,1.10755
1382012608183,1.10768
1382012668183,1.10909
1382012728183,1.11049
1382012788183,1.10210
1382012848183,1.09883
1382012908183,1.08506
1382012968183,1.08589
1382013028183,1.08306
1382013088183,1.08134
1382013148183,1.07688
1382013208183,1.06892
1382013268183,1.07997
1382013328183,1.06692
1382013388183,1.06233
1382013448183,1.07419
1382013508183,1.06462
1382013568183,1.06842
1382013628183,1.07077
1382013688183,1.06910
1382013748183,1.07431
1382013808183,1.07112
1382013868183,1.08948
1382013928183,1.08648
1382013988183,1.08580
1382014048183,1.08660
1382014108183,1.09354
1382014168183,1.09813
1382014228183,1.09805
1382014288183,1.10143
1382014348183,1.09762
1382014408183,1.08557
1382014468183,1.09544
1382014528183,1.08764
1382014588183,1.08788
1382014648183,1.09138
1382014708183,1.08904
1382014768183,1.08701
1382014828194,1.08666
1382014888194,1.08840
1382014948194,1.09105
1382015008194,1.09184
1382015068194,1.08367
1382015128194,1.08805
1382015188194,1.09212
1382015248194,1.09228
1382015308194,1.10020
1382015368194,1.09457
1382015428194,1.08915
1382015488194,1.09842
1382015548194,1.09395
1382015608194,1.09591
1382015668194,1.10046
1382015728194,1.10336
1382015788194,1.09936
1382015848194,1.09808
1382015908194,1.09377
1382015968194,1.09757
1382016028194,1.09437
1382016088194,1.09399
1382016148194,1.09820
1382016208194,1.09904
1382016268194,1.10208
1382016328194,1.09914
1382016388194,1.09577
1382016448194,1.09454
1382016508194,1.08845
1382016568194,1.07749
1382016628194,1.08394
1382016688194,1.08606
1382016748194,1.07962
1382016808194,1.08616
1382016868194,1.08359
1382016928194,1.07767
1382016988194,1.08410
1382017048194,1.07915
1382017108194,1.08274
1382017168194,1.07732
1382017228194,1.08014
1382017288194,1.07177
1382017348194,1.07138
1382017408194,1.07129
1382017468194,1.06720
1382017528194,1.06450
1382017588194,1.04934
1382017648194,1.06728
1382017708194,1.06345
1382017768194,1.05458
1382017828194,1.04655
1382017888194,1.05455
1382017948194,1.05014
1382018008194,1.05364
1382018068194,1.04550
1382018128194,1.05204
1382018188194,1.05243
1382018248194,1.04657
1382018308194,1.04189
1382018368194,1.05073
1382018428206,1.04759
1382018488206,1.05107
1382018548206,1.04443
1382018608206,1.04000
1382018668206,1.04965
1382018728206,1.04094
1382018788206,1.03604
1382018848206,1.04538
1382018908206,1.03969
1382018968206,1.03985
1382019028206,1.03418
1382019088206,1.03294
1382019148206,1.03272
1382019208206,1.03593
1382019268206,1.03138
1382019328206,1.02923
1382019388206,1.03087
1382019448206,1.02739
1382019508206,1.02863
1382019568206,1.03334
1382019628206,1.02983
1382019688206,1.02382
1382019748206,1.02941
1382019808206,1.02624
1382019868206,1.02889
1382019928206,1.02622
1382019988206,1.02773
1382020048206,1.03863
1382020108206,1.03077
1382020168206,1.02577
1382020228206,1.04123
1382020288206,1.03655
1382020348206,1.03216
1382020408206,1.02664
1382020468206,1.02619
1382020528206,1.02934
1382020588206,1.02971
1382020648206,1.03136
1382020708206,1.02026
1382020768206,1.02438
1382020828206,1.02059
1382020888206,1.02278
1382020948206,1.02787
1382021008206,1.01851
1382021068206,1.02599
1382021128206,1.01792
1382021188206,1.01909
1382021248206,1.02205
1382021308206,1.02165
1382021368206,1.01494
1382021428206,1.02034
1382021488206,1.02463
1382021548206,1.01826
1382021608206,1.01982
1382021668206,1.02168
1382021728206,1.02882
1382021788206,1.01720
1382021848206,1.02600
1382021908206,1.02531
1382021968206,1.02099
1382022028218,1.02183
1382022088218,1.02601
1382022148218,1.02904
1382022208218,1.02326
1382022268218,1.02212
1382022328218,1.03109
1382022388218,1.02923
1382022448218,1.03253
1382022508218,1.03187
1382022568218,1.02986
1382022628218,1.03745
1382022688218,1.03524
1382022748218,1.04499
1382022808218,1.04993
1382022868218,1.06323
1382022928218,1.07013
1382022988218,1.07925
1382023048218,1.09792
1382023108218,1.11415
1382023168218,1.12121
1382023228218,1.12989
1382023288218,1.14891
1382023348218,1.15669
1382023408218,1.16180
1382023468218,1.16950
1382023528218,1.17828
1382023588218,1.17951
1382023648218,1.18253
1382023708218,1.19012
1382023768218,1.19284
1382023828218,1.19728
1382023888218,1.20184
1382023948218,1.20374
1382024008218,1.20271
1382024068218,1.20979
1382024128218,1.21604
1382024188218,1.21734
1382024248218,1.22498
1382024308218,1.24472
1382024368218,1.23664
1382024428218,1.26375
1382024488218,1.27181
1382024548218,1.29032
1382024608218,1.30473
1382024668218,1.30841
1382024728218,1.32332
1382024788218,1.33525
1382024848218,1.34258
1382024908218,1.34933
1382024968218,1.35597
1382025028218,1.35686
1382025088218,1.36439
1382025148218,1.35721
1382025208218,1.34780
1382025268218,1.35112
1382025328218,1.33933
1382025388218,1.32931
1382025448218,1.33146
1382025508218,1.32657
1382025568218,1.32136
1382025628230,1.29528
1382025688230,1.29230
1382025748230,1.28276
1382025808229,1.28702
1382025868229,1.25970
1382025928229,1.25934
1382025988229,1.23723
1382026048229,1.22085
1382026108229,1.22115
1382026168230,1.20578
1382026228230,1.19415
1382026288230,1.18398
1382026348230,1.17625
1382026408230,1.17140
1382026468229,1.16667
1382026528230,1.15673
1382026588230,1.15530
1382026648230,1.15705
1382026708230,1.14551
1382026768230,1.13760
1382026828230,1.12947
1382026888230,1.12929
1382026948230,1.12493
1382027008230,1.11907
1382027068230,1.12023
1382027128229,1.11483
1382027188229,1.10612
1382027248229,1.11301
1382027308229,1.10361
1382027368229,1.09623
1382027428229,1.09935
1382027488229,1.09967
1382027548230,1.09947
1382027608230,1.09810
1382027668230,1.08322
1382027728230,1.08604
1382027788230,1.08312
1382027848230,1.07811
1382027908230,1.07755
1382027968230,1.06792
1382028028230,1.06827
1382028088230,1.07567
1382028148230,1.06868
1382028208230,1.06077
1382028268230,1.06237
1382028328230,1.08000
1382028388230,1.07458
1382028448230,1.06209
1382028508229,1.06233
1382028568229,1.05876
1382028628229,1.04632
1382028688229,1.04972
1382028748229,1.04729
1382028808229,1.05188
1382028868230,1.04198
1382028928230,1.03721
1382028988230,1.04072
1382029048230,1.04006
1382029108230,1.03994
1382029168229,1.02887
1382029228241,1.02733
1382029288241,1.03074
1382029348241,1.03600
1382029408241,1.03493
1382029468241,1.02714
1382029528241,1.03424
1382029588241,1.02788
1382029648241,1.02672
1382029708241,1.03086
1382029768241,1.02481
1382029828241,1.02923
1382029888241,1.03175
1382029948241,1.02143
1382030008241,1.02614
1382030068241,1.02356
1382030128241,1.03000
1382030188241,1.02616
1382030248241,1.02907
1382030308241,1.02491
1382030368241,1.02803
1382030428241,1.02175
1382030488241,1.02160
1382030548241,1.01478
1382030608241,1.02337
1382030668241,1.01689
1382030728241,1.01759
1382030788241,1.01847
1382030848241,1.01746
1382030908241,1.01308
1382030968241,1.01467
1382031028241,1.01412
1382031088241,1.01486
1382031148241,1.01303
1382031208241,1.01534
1382031268241,1.01392
1382031328241,1.01444
1382031388241,1.01561
1382031448241,1.01996
1382031508241,1.02866
1382031568241,1.02586
1382031628241,1.01424
1382031688241,1.01810
1382031748241,1.01231
1382031808241,1.00964
1382031868241,1.00507
1382031928241,1.00348
1382031988241,1.01344
1382032048241,1.00299
1382032108241,1.00905
1382032168241,1.00809
1382032228241,1.00668
1382032288241,1.00839
1382032348241,1.00207
1382032408241,1.01115
1382032468241,1.00147
1382032528241,1.00705
1382032588241,1.00258
1382032648241,1.01179
1382032708241,1.00527